Regional Weather Roundup
Issued by NWS

Home | Current Version | Previous Version | Graphics & Text | Print | Product List | Glossary On
Versions: 1 2 3 4 5 6 7 8 9 10 11 12 13 14 15 16 17 18 19 20 21 22 23 24 25 26 27 28 29 30 31 32 33 34 35 36 37 38 39 40 41 42 43 44 45 46 47 48 49 50
955
ASUS45 KABQ 270410
RWRNM
NEW MEXICO REGIONAL WEATHER ROUNDUP
NATIONAL WEATHER SERVICE ALBUQUERQUE NM
1000 PM MDT TUE JUL 26 2016

NOTE: "FAIR" MEANS FEW OR NO CLOUDS BELOW 12,000 FEET AGL WITH NO
       SIGNIFICANT WEATHER OR OBSTRUCTIONS TO VISION.

      THIS PRODUCT IS RELEASED AS TWO VERSIONS.  ONE VERSION NEAR
      THE TOP OF THE HOUR CONTAINING PRELIMINARY DATA FROM ALBUQUERQUE
      AND OTHER STATIONS.  A FINAL VERSION WITH ADDITIONAL DATA IS
      ISSUED ABOUT 10 MINUTES AFTER THE HOUR.

NMZ501-503-504-510>518-270500-
NORTHWEST PLATEAU/NORTHCENTRAL MOUNTAINS

CITY           SKY/WX    TMP DP  RH WIND       PRES   REMARKS
FARMINGTON     FAIR      78  52  40 E13       30.17R
LOS ALAMOS     CLOUDY   N/A N/A N/A N10G18    30.33R
SANTA FE       FAIR      76  47  35 E8        30.26R
TAOS           FAIR      68  39  34 SE14      30.34R
ANGEL FIRE     LGT RAIN  55  53  91 S5        30.48R

$$
NMZ402-403-502-505>509-270500-
WESTCENTRAL MOUNTAINS/SOUTHWEST MOUNTAINS

CITY           SKY/WX    TMP DP  RH WIND       PRES   REMARKS
GALLUP         FAIR      76  42  29 CALM      30.23R
GRANTS         CLOUDY    75  52  43 S14       30.28R
SILVER CITY    FAIR      77  51  39 NW9       30.16R

$$
NMZ407-409-411-412-270500-
SOUTHERN DESERTS

CITY           SKY/WX    TMP DP  RH WIND       PRES   REMARKS
LORDSBURG      MOCLDY    86  54  32 W3        30.06R
DEMING         MOCLDY    87  54  32 NW5       30.05
LAS CRUCES     FAIR      83  52  33 E5        30.08R
HOLLOMAN AFB   CLOUDY    85  55  35 S7        30.04R
ALAMOGORDO     FAIR      84  54  34 SE5       30.07S
T OR C         FAIR      81  53  37 NW17G25   30.09S

$$
NMZ519>523-270500-
CENTRAL VALLEYS/CENTRAL HIGHLANDS

CITY           SKY/WX    TMP DP  RH WIND       PRES   REMARKS
ALBUQUERQUE    MOCLDY    78  56  46 SE13      30.18R
DOUBLE EAGLE   MOCLDY    72  57  60 S14       30.25R
MORIARTY ARPT  CLOUDY    67  57  70 CALM      30.29R
CLINES CORNERS MOCLDY    61  57  87 E8        30.34R
BELEN          CLOUDY    74  57  55 CALM      30.19R
SOCORRO        CLOUDY    83  49  30 N21G26    30.13R

$$
NMZ524>526-539-540-270500-
SOUTHCENTRAL MOUNTAINS

CITY           SKY/WX    TMP DP  RH WIND       PRES   REMARKS
RUIDOSO          N/A     68  54  60 SW6       30.32R

$$
NMZ527>531-270500-
NORTHEAST HIGHLANDS/NORTHEAST PLAINS

CITY           SKY/WX    TMP DP  RH WIND       PRES   REMARKS
LAS VEGAS      MOCLDY    62  53  72 CALM      30.34R
RATON          LGT RAIN  55  55 100 S15       30.32R
CLAYTON        FAIR      74  59  59 SE9       30.16R

$$
NMZ532>537-270500-
EASTCENTRAL PLAINS

CITY           SKY/WX    TMP DP  RH WIND       PRES   REMARKS
TUCUMCARI      FAIR      78  59  51 SW7       30.08R
CANNON AFB     FAIR      74  62  66 SE7       30.13R
CLOVIS AIRPORT FAIR      73  57  56 E3        30.14R

$$
NMZ028-029-538-270500-
SOUTHEAST PLAINS

CITY           SKY/WX    TMP DP  RH WIND       PRES   REMARKS
ROSWELL        FAIR      82  58  43 S6        30.06R
ARTESIA        FAIR      82  64  54 S7        30.05R
CARLSBAD       FAIR      78  68  71 S5        30.03R
HOBBS          MOCLDY    75  64  69 CALM      30.10R


$$




USA.gov is the U.S. government's official web portal to all federal, state and local government web resources and services.